Location: *
(6.0000°S, 32.3997°W)
Time: 15:42:28
(UTC+00:00)

Cosmos 1025 Rocket - Pass Details

Date: 01 April 2020
Orbit: 593 x 619 km, 82.5° (Epoch: 26 May)

Event Time Altitude Azimuth Distance (km) Brightness Sun altitude
Rises 20:31:28 0° 348° (NNW) 2,822 6.7 -5.0°
Reaches altitude 10° 20:33:41 10° 343° (NNW) 1,922 5.9 -5.6°
Maximum altitude 20:37:50 54° 266° (W) 724 3.9 -6.6°
Drops below altitude 10° 20:42:00 10° 188° (S) 1,930 5.7 -7.6°
Sets 20:44:15 0° 183° (S) 2,835 6.5 -8.2°
